,,Stat6,,Stat2,,Stat8,,Stat9,,Stat10,,Wind1,,Wind1,
time,status,PA1M_AVG,status,PR1M_SUM,status,RH1M_AVG,status,SR1M_AVG,status,TA1M_AVG,status,W1dAve1m,status,W1sAve1m,
2006-04-19, 00:00:01,VALID,916.675,VALID,0,VALID,98.9041,VALID,0.0509425,VALID,21.5717,VALID,345,VALID,0.720846,
2006-04-19, 00:01:01,VALID,916.69,VALID,0,VALID,91.9942,VALID,0.750298,VALID,20.6604,VALID,333,VALID,0.440104,
2006-04-19, 00:02:01,VALID,916.692,VALID,0,VALID,90.4823,VALID,-0.384276,VALID,22.2633,VALID,343,VALID,0.240552,
2006-04-19, 00:03:01,VALID,916.694,VALID,0,VALID,92.7368,VALID,2.20751,VALID,22.4961,VALID,360,VALID,0.472747,
2006-04-19, 00:04:00,VALID,916.711,VALID,0,VALID,90.2369,VALID,2.24461,VALID,20.4191,VALID,339,VALID,0.445313,
2006-04-19, 00:05:01,VALID,916.718,VALID,0,VALID,91.2554,VALID,-0.445916,VALID,20.2608,VALID,350,VALID,0.618075,
2006-04-19, 00:06:00,VALID,916.747,VALID,0,VALID,94.3772,VALID,0.0157082,VALID,21.2319,VALID,352,VALID,0.717882,
2006-04-19, 00:07:00,VALID,916.77,VALID,0,VALID,99.4013,VALID,1.85405,VALID,20.8607,VALID,338,VALID,0.650112,
2006-04-19, 00:08:01,VALID,916.813,VALID,0,VALID,98.796,VALID,-0.884276,VALID,20.9916,VALID,335,VALID,0.51543,
2006-04-19, 00:09:00,VALID,916.833,VALID,0,VALID,99.4992,VALID,-0.251571,VALID,20.5985,VALID,318,VALID,0.205602,
2006-04-19, 00:10:01,VALID,916.849,VALID,0,VALID,93.8864,VALID,-0.816352,VALID,22.0093,VALID,315,VALID,0.155887,
2006-04-19, 00:11:00,VALID,916.853,VALID,0,VALID,96.5911,VALID,-0.0339617,VALID,21.373,VALID,315,VALID,0.231105,
2006-04-19, 00:12:01,VALID,916.853,VALID,0,VALID,95.8078,VALID,1.73204,VALID,19.9777,VALID,203,VALID,0.323552,
2006-04-19, 00:13:01,VALID,916.845,VALID,0,VALID,94.774,VALID,0.135847,VALID,21.1106,VALID,176,VALID,0.0809295,
2006-04-19, 00:14:00,VALID,916.837,VALID,0,VALID,90.9286,VALID,1.20564,VALID,21.9311,VALID,183,VALID,0.495139,
2006-04-19, 00:15:00,VALID,916.831,VALID,0,VALID,88.0739,VALID,-0.398115,VALID,21.7783,VALID,191,VALID,0.311738,
2006-04-19, 00:16:01,VALID,916.821,VALID,0,VALID,95.5446,VALID,0.254712,VALID,21.384,VALID,192,VALID,0.336979,
2006-04-19, 00:17:01,VALID,916.827,VALID,0,VALID,93.8826,VALID,-0.347173,VALID,24.0062,VALID,180,VALID,0.204492,
2006-04-19, 00:18:00,VALID,916.85,VALID,0,VALID,99.9738,VALID,-1,VALID,21.7316,VALID,178,VALID,0.40816,
2006-04-19, 00:19:00,VALID,916.886,VALID,0,VALID,99.9914,VALID,-1,VALID,22.2743,VALID,288,VALID,0.511364,
2006-04-19, 00:20:00,VALID,916.903,VALID,0,VALID,97.0051,VALID,-0.833333,VALID,22.1244,VALID,5,VALID,0.855369,
2006-04-19, 00:21:01,VALID,916.921,VALID,0,VALID,100,VALID,-1,VALID,22.6532,VALID,14,VALID,1.10023,
2006-04-19, 00:22:01,VALID,916.943,VALID,0,VALID,97.0181,VALID,-0.833333,VALID,21.0763,VALID,5,VALID,1.13033,
2006-04-19, 00:23:00,VALID,916.964,VALID,0,VALID,97.822,VALID,-0.850314,VALID,21.1009,VALID,10,VALID,1.15807,
2006-04-19, 00:24:00,VALID,916.966,VALID,0,VALID,91.1575,VALID,2.22449,VALID,21.3925,VALID,349,VALID,0.74256,
2006-04-19, 00:25:00,VALID,916.962,VALID,0,VALID,91.1753,VALID,3.32824,VALID,22.7558,VALID,10,VALID,1.09157,
2006-04-19, 00:26:00,VALID,916.959,VALID,0,VALID,88.182,VALID,1.46349,VALID,22.008,VALID,339,VALID,0.609545,
2006-04-19, 00:27:01,VALID,916.939,VALID,0,VALID,97.5257,VALID,-0.802513,VALID,20.7603,VALID,340,VALID,0.923478,
2006-04-19, 00:28:00,VALID,916.915,VALID,0,VALID,91.1054,VALID,2.02072,VALID,22.0003,VALID,323,VALID,0.553757,
2006-04-19, 00:29:01,VALID,916.912,VALID,0,VALID,88.1642,VALID,1.97292,VALID,20.8565,VALID,5,VALID,0.468936,
2006-04-19, 00:30:01,VALID,916.914,VALID,0,VALID,96.9583,VALID,-1,VALID,22.4622,VALID,15,VALID,0.352344,
2006-04-19, 00:31:00,VALID,916.92,VALID,0,VALID,100,VALID,-0.901257,VALID,21.8999,VALID,17,VALID,0.724564,
2006-04-19, 00:32:00,VALID,916.938,VALID,0,VALID,99.9748,VALID,1.01885,VALID,22.511,VALID,9,VALID,1.05545,
2006-04-19, 00:33:00,VALID,916.96,VALID,0,VALID,100,VALID,0.0679233,VALID,21.1358,VALID,2,VALID,1.27288,
2006-04-19, 00:34:00,VALID,916.993,VALID,0,VALID,100,VALID,0.223892,VALID,20.602,VALID,9,VALID,0.975109,
2006-04-19, 00:35:01,VALID,917.012,VALID,0,VALID,100,VALID,-0.825777,VALID,21.4337,VALID,22,VALID,1.18807,
2006-04-19, 00:36:00,VALID,917.014,VALID,0,VALID,97.1786,VALID,0.135847,VALID,21.0648,VALID,25,VALID,1.73828,
2006-04-19, 00:37:01,VALID,917.03,VALID,0,VALID,100,VALID,-0.288674,VALID,21.8188,VALID,21,VALID,1.55191,
2006-04-19, 00:38:00,VALID,917.023,VALID,0,VALID,97.1976,VALID,-0.20377,VALID,20.7524,VALID,23,VALID,1.53107,
2006-04-19, 00:39:00,VALID,917.013,VALID,0,VALID,100,VALID,-0.186789,VALID,21.5547,VALID,6,VALID,1.00213,
2006-04-19, 00:40:01,VALID,917.01,VALID,0,VALID,100,VALID,1.1547,VALID,21.4693,VALID,17,VALID,0.679315,
2006-04-19, 00:41:00,VALID,917,VALID,0,VALID,97.129,VALID,-0.237732,VALID,21.8254,VALID,19,VALID,1.02961,
2006-04-19, 00:42:01,VALID,916.99,VALID,0,VALID,100,VALID,-0.135847,VALID,21.1927,VALID,19,VALID,0.958939,
2006-04-19, 00:43:00,VALID,917.002,VALID,0,VALID,91.3541,VALID,2.75089,VALID,21.5098,VALID,18,VALID,0.982067,
2006-04-19, 00:44:00,VALID,917.001,VALID,0,VALID,97.1315,VALID,1.2396,VALID,21.555,VALID,19,VALID,1.10574,
2006-04-19, 00:45:01,VALID,917.016,VALID,0,VALID,99.968,VALID,0.101885,VALID,20.9198,VALID,3,VALID,0.568496,
2006-04-19, 00:46:00,VALID,917.018,VALID,0,VALID,99.8906,VALID,0.0849042,VALID,20.8483,VALID,18,VALID,0.754794,
2006-04-19, 00:47:01,VALID,917.04,VALID,0,VALID,97.0984,VALID,-0.0478009,VALID,21.4675,VALID,20,VALID,0.59593,
2006-04-19, 00:48:00,VALID,917.051,VALID,0,VALID,97.1188,VALID,1.10375,VALID,22.1673,VALID,18,VALID,0.693924,
2006-04-19, 00:49:01,VALID,917.082,VALID,0,VALID,97.1201,VALID,-0.288674,VALID,21.3735,VALID,15,VALID,0.568859,
2006-04-19, 00:50:00,VALID,917.107,VALID,0,VALID,99.9148,VALID,-0.305655,VALID,20.8341,VALID,16,VALID,0.68192,
2006-04-19, 00:51:00,VALID,917.132,VALID,0,VALID,96.9522,VALID,0.747157,VALID,22.375,VALID,15,VALID,0.723544,
2006-04-19, 00:52:00,VALID,917.172,VALID,0,VALID,99.9341,VALID,0.645272,VALID,21.5322,VALID,3,VALID,0.859375,
2006-04-19, 00:53:00,VALID,917.189,VALID,0,VALID,98.8355,VALID,0.0509425,VALID,21.8867,VALID,338,VALID,0.609738,
2006-04-19, 00:54:00,VALID,917.192,VALID,0,VALID,96.6585,VALID,0.0339617,VALID,21.2333,VALID,351,VALID,0.413699,
2006-04-19, 00:55:01,VALID,917.196,VALID,0,VALID,97.2956,VALID,0.101885,VALID,21.6906,VALID,4,VALID,0.277071,
2006-04-19, 00:56:00,VALID,917.175,VALID,0,VALID,99.9278,VALID,0.0679233,VALID,21.3843,VALID,23,VALID,0.678013,
2006-04-19, 00:57:00,VALID,917.168,VALID,0,VALID,99.8985,VALID,-0.0169808,VALID,21.1429,VALID,5,VALID,0.681021,
2006-04-19, 00:58:01,VALID,917.17,VALID,0,VALID,99.7523,VALID,-0.0339617,VALID,21.9919,VALID,5,VALID,0.303234,
2006-04-19, 00:59:00,VALID,917.162,VALID,0,VALID,99.8121,VALID,0.220751,VALID,20.214,VALID,18,VALID,0.973189,
2006-04-19, 01:00:01,VALID,917.177,VALID,0,VALID,96.8212,VALID,1.69808,VALID,22.0015,VALID,17,VALID,1.09575,
2006-04-19, 01:01:00,VALID,917.179,VALID,0,VALID,99.84,VALID,-0.0849042,VALID,21.5494,VALID,344,VALID,0.989462,
2006-04-19, 01:02:00,VALID,917.173,VALID,0,VALID,96.7475,VALID,-0.101885,VALID,20.2407,VALID,360,VALID,1.02943,
2006-04-19, 01:03:00,VALID,917.17,VALID,0,VALID,96.9815,VALID,-0.237732,VALID,22.5534,VALID,5,VALID,0.772507,
2006-04-19, 01:04:01,VALID,917.15,VALID,0,VALID,99.8121,VALID,0.0679233,VALID,21.2805,VALID,344,VALID,0.761719,
2006-04-19, 01:05:01,VALID,917.136,VALID,0,VALID,97.0295,VALID,-0.152827,VALID,20.4314,VALID,2,VALID,0.757617,
2006-04-19, 01:06:01,VALID,917.119,VALID,0,VALID,99.9891,VALID,-0.186789,VALID,21.5295,VALID,2,VALID,0.801669,
2006-04-19, 01:07:00,VALID,917.121,VALID,0,VALID,100,VALID,-0.20377,VALID,22.0143,VALID,10,VALID,0.739211,
2006-04-19, 01:08:01,VALID,917.137,VALID,0,VALID,100,VALID,-0.220751,VALID,20.8735,VALID,21,VALID,0.921875,
2006-04-19, 01:09:01,VALID,917.155,VALID,0,VALID,96.1971,VALID,-0.186789,VALID,20.6603,VALID,21,VALID,0.994004,
2006-04-19, 01:10:00,VALID,917.191,VALID,0,VALID,100,VALID,-0.152827,VALID,21.5413,VALID,19,VALID,0.892773,
2006-04-19, 01:11:00,VALID,917.233,VALID,0,VALID,99.9853,VALID,-0.118866,VALID,21.2411,VALID,19,VALID,0.810023,
2006-04-19, 01:12:00,VALID,917.27,VALID,0,VALID,100,VALID,-0.135847,VALID,21.2814,VALID,13,VALID,0.655523,
2006-04-19, 01:13:01,VALID,917.295,VALID,0,VALID,96.6091,VALID,-0.237732,VALID,20.9694,VALID,353,VALID,0.550977,
2006-04-19, 01:14:01,VALID,917.318,VALID,0,VALID,96.9141,VALID,0.81508,VALID,21.0419,VALID,274,VALID,0.462209,
2006-04-19, 01:15:00,VALID,917.326,VALID,0,VALID,93.5845,VALID,1.2396,VALID,21.3577,VALID,251,VALID,0.205487,
2006-04-19, 01:16:01,VALID,917.328,VALID,0,VALID,91.2801,VALID,0.747157,VALID,20.9253,VALID,272,VALID,0.34266,
2006-04-19, 01:17:01,VALID,917.325,VALID,0,VALID,97.1341,VALID,0.40754,VALID,20.2707,VALID,285,VALID,0.170603,
2006-04-19, 01:18:00,VALID,917.311,VALID,0,VALID,97.0768,VALID,0.645272,VALID,22.2484,VALID,347,VALID,0.390816,
2006-04-19, 01:19:01,VALID,917.34,VALID,0,VALID,100,VALID,1.20564,VALID,21.1194,VALID,354,VALID,0.380208,
2006-04-19, 01:20:01,VALID,917.351,VALID,0,VALID,91.3144,VALID,2.08864,VALID,20.9521,VALID,3,VALID,0.586119,
2006-04-19, 01:21:01,VALID,917.374,VALID,0,VALID,99.6836,VALID,0.0509425,VALID,21.2029,VALID,26,VALID,0.936198,
2006-04-19, 01:22:01,VALID,917.409,VALID,0,VALID,97.0959,VALID,0.373578,VALID,21.1777,VALID,27,VALID,0.827753,
2006-04-19, 01:23:01,VALID,917.422,VALID,0,VALID,99.9952,VALID,0.0679233,VALID,21.2355,VALID,19,VALID,0.709635,
2006-04-19, 01:24:01,VALID,917.449,VALID,0,VALID,100,VALID,-0.152827,VALID,21.1762,VALID,26,VALID,1.06213,
2006-04-19, 01:25:01,VALID,917.461,VALID,0,VALID,100,VALID,-0.220751,VALID,22.1955,VALID,24,VALID,1.15718,
2006-04-19, 01:26:01,VALID,917.476,VALID,0,VALID,100,VALID,-0.135847,VALID,20.7231,VALID,23,VALID,0.901677,
2006-04-19, 01:27:01,VALID,917.493,VALID,0,VALID,100,VALID,-0.152827,VALID,22.0739,VALID,31,VALID,0.884868,
2006-04-19, 01:28:01,VALID,917.501,VALID,0,VALID,100,VALID,-0.220751,VALID,20.7918,VALID,31,VALID,0.408537,
2006-04-19, 01:29:01,VALID,917.51,VALID,0,VALID,100,VALID,0.0339617,VALID,21.0895,VALID,31,VALID,0.0584077,
2006-04-19, 01:30:01,VALID,917.525,VALID,0,VALID,100,VALID,-0.237732,VALID,21.3939,VALID,32,VALID,0.0875727,
2006-04-19, 01:31:01,VALID,917.541,VALID,0,VALID,99.987,VALID,-0.135847,VALID,21.8914,VALID,35,VALID,0.236607,
2006-04-19, 01:32:01,VALID,917.547,VALID,0,VALID,99.9791,VALID,-0.339617,VALID,21.4449,VALID,24,VALID,0.608467,
2006-04-19, 01:33:01,VALID,917.563,VALID,0,VALID,99.9926,VALID,-0.101885,VALID,21.0287,VALID,17,VALID,0.772656,
2006-04-19, 01:34:00,VALID,917.56,VALID,0,VALID,100,VALID,0.118866,VALID,21.3389,VALID,20,VALID,1.40443,
2006-04-19, 01:35:01,VALID,917.56,VALID,0,VALID,99.984,VALID,-0.118866,VALID,22.3066,VALID,24,VALID,1.4708,
2006-04-19, 01:36:01,VALID,917.56,VALID,0,VALID,99.8349,VALID,-0.152827,VALID,21.7381,VALID,19,VALID,1.14023,
2006-04-19, 01:37:01,VALID,917.552,VALID,0,VALID,99.7574,VALID,-0.237732,VALID,21.1877,VALID,23,VALID,1.19386,
2006-04-19, 01:38:01,VALID,917.564,VALID,0,VALID,98.5722,VALID,0.118866,VALID,21.4357,VALID,16,VALID,1.00881,
2006-04-19, 01:39:01,VALID,917.585,VALID,0,VALID,99.5666,VALID,-0.135847,VALID,20.7949,VALID,12,VALID,0.789253,
2006-04-19, 01:40:01,VALID,917.591,VALID,0,VALID,99.5527,VALID,-0.305655,VALID,21.925,VALID,22,VALID,0.997768,
2006-04-19, 01:41:01,VALID,917.611,VALID,0,VALID,99.7256,VALID,-0.305655,VALID,20.9136,VALID,25,VALID,1.20295,
2006-04-19, 01:42:01,VALID,917.657,VALID,0,VALID,99.7625,VALID,-0.271693,VALID,20.8192,VALID,11,VALID,0.820833,
2006-04-19, 01:43:01,VALID,917.689,VALID,0,VALID,99.2805,VALID,-0.254712,VALID,22.2091,VALID,352,VALID,1.27943,
2006-04-19, 01:44:01,VALID,917.731,VALID,0,VALID,99.0783,VALID,-0.118866,VALID,20.4144,VALID,12,VALID,1.05327,
2006-04-19, 01:45:01,VALID,917.773,VALID,0,VALID,99.3772,VALID,0.135847,VALID,21.0748,VALID,18,VALID,0.881722,
2006-04-19, 01:46:01,VALID,917.808,VALID,0,VALID,99.498,VALID,-0.118866,VALID,22.1112,VALID,349,VALID,0.614397,
2006-04-19, 01:47:01,VALID,917.85,VALID,0,VALID,99.4929,VALID,-0.186789,VALID,21.1474,VALID,330,VALID,0.382267,
2006-04-19, 01:48:01,VALID,917.875,VALID,0,VALID,99.4357,VALID,-0.186789,VALID,21.5224,VALID,316,VALID,0.490141,
2006-04-19, 01:49:01,VALID,917.887,VALID,0,VALID,99.3403,VALID,-0.237732,VALID,21.6957,VALID,337,VALID,0.333984,
2006-04-19, 01:50:01,VALID,917.923,VALID,0,VALID,99.3708,VALID,-0.271693,VALID,20.9888,VALID,326,VALID,0.814499,
2006-04-19, 01:51:01,VALID,917.927,VALID,0,VALID,99.4776,VALID,-0.254712,VALID,21.1632,VALID,323,VALID,0.50293,
2006-04-19, 01:52:01,VALID,917.936,VALID,0,VALID,99.6022,VALID,0.0339617,VALID,21.3028,VALID,336,VALID,0.465625,
2006-04-19, 01:53:01,VALID,917.955,VALID,0,VALID,99.615,VALID,-0.152827,VALID,20.999,VALID,342,VALID,0.146793,
2006-04-19, 01:54:01,VALID,917.943,VALID,0,VALID,99.779,VALID,-0.237732,VALID,20.7264,VALID,342,VALID,0.0259766,
2006-04-19, 01:55:01,VALID,917.949,VALID,0,VALID,99.9252,VALID,-0.135847,VALID,21.1411,VALID,345,VALID,0.328488,
2006-04-19, 01:56:01,VALID,917.948,VALID,0,VALID,99.9568,VALID,-0.135847,VALID,20.1273,VALID,356,VALID,0.465588,
2006-04-19, 01:57:01,VALID,917.947,VALID,0,VALID,99.718,VALID,-0.101885,VALID,20.5645,VALID,356,VALID,0.328683,
2006-04-19, 01:58:01,VALID,917.957,VALID,0,VALID,99.7828,VALID,-0.152827,VALID,20.61,VALID,360,VALID,0.376817,
2006-04-19, 01:59:00,VALID,917.962,VALID,0,VALID,99.9023,VALID,-0.118866,VALID,20.5337,VALID,22,VALID,0.785823,
2006-04-19, 02:00:00,VALID,917.977,VALID,0,VALID,100,VALID,-0.20377,VALID,21.77,VALID,24,VALID,0.999442,
2006-04-19, 02:01:00,VALID,917.967,VALID,0,VALID,100,VALID,-0.237732,VALID,20.9284,VALID,19,VALID,0.639063,
2006-04-19, 02:02:00,VALID,917.972,VALID,0,VALID,99.9222,VALID,-0.20377,VALID,20.8259,VALID,7,VALID,0.638263,
2006-04-19, 02:03:00,VALID,917.961,VALID,0,VALID,99.7002,VALID,-0.288674,VALID,21.1872,VALID,10,VALID,0.626635,
2006-04-19, 02:04:00,VALID,917.97,VALID,0,VALID,99.676,VALID,-0.288674,VALID,21.5804,VALID,24,VALID,0.680596,
2006-04-19, 02:05:00,VALID,917.948,VALID,0,VALID,99.7675,VALID,-0.305655,VALID,20.5008,VALID,19,VALID,0.323847,
2006-04-19, 02:06:00,VALID,917.939,VALID,0,VALID,99.6785,VALID,-0.186789,VALID,21.9121,VALID,17,VALID,0.326982,
2006-04-19, 02:07:00,VALID,917.933,VALID,0,VALID,99.6099,VALID,-0.20377,VALID,20.7258,VALID,16,VALID,0.544727,
2006-04-19, 02:08:00,VALID,917.937,VALID,0,VALID,99.4929,VALID,-0.0169808,VALID,21.1531,VALID,18,VALID,0.74442,
2006-04-19, 02:09:00,VALID,917.966,VALID,0,VALID,99.6709,VALID,-0.288674,VALID,21.2631,VALID,22,VALID,0.770275,
2006-04-19, 02:10:00,VALID,917.981,VALID,0,VALID,99.7421,VALID,-0.237732,VALID,20.9178,VALID,22,VALID,0.68968,
2006-04-19, 02:11:00,VALID,918.014,VALID,0,VALID,99.5374,VALID,-0.220751,VALID,20.9865,VALID,359,VALID,0.63899,
2006-04-19, 02:12:00,VALID,918.03,VALID,0,VALID,99.456,VALID,-0.305655,VALID,20.8408,VALID,356,VALID,0.728423,
2006-04-19, 02:13:00,VALID,918.059,VALID,0,VALID,99.573,VALID,-0.322636,VALID,21.9784,VALID,356,VALID,0.56593,
2006-04-19, 02:14:00,VALID,918.053,VALID,0,VALID,99.7116,VALID,0.118866,VALID,20.7356,VALID,357,VALID,0.572266,
2006-04-19, 02:15:00,VALID,918.052,VALID,0,VALID,99.5921,VALID,0.135847,VALID,21.3307,VALID,359,VALID,0.616824,
2006-04-19, 02:16:00,VALID,918.051,VALID,0,VALID,99.4115,VALID,-0.169808,VALID,21.1198,VALID,350,VALID,0.589026,
2006-04-19, 02:17:00,VALID,918.06,VALID,0,VALID,99.3746,VALID,-0.135847,VALID,20.8057,VALID,339,VALID,0.694741,
2006-04-19, 02:18:00,VALID,918.059,VALID,0,VALID,99.3301,VALID,-0.169808,VALID,22.0572,VALID,346,VALID,0.513464,
2006-04-19, 02:19:00,VALID,918.087,VALID,0,VALID,99.4675,VALID,-0.186789,VALID,21.1736,VALID,8,VALID,0.431641,
2006-04-19, 02:20:00,VALID,918.099,VALID,0,VALID,99.4573,VALID,0.0509425,VALID,20.7134,VALID,8,VALID,0.296165,
2006-04-19, 02:21:00,VALID,918.119,VALID,0,VALID,98.4947,VALID,0.0509425,VALID,21.3774,VALID,8,VALID,0.426054,
2006-04-19, 02:22:00,VALID,918.141,VALID,0,VALID,99.7319,VALID,0.169808,VALID,20.8732,VALID,3,VALID,0.690625,
2006-04-19, 02:23:00,VALID,918.158,VALID,0,VALID,99.4967,VALID,0.118866,VALID,20.3357,VALID,347,VALID,1.03906,
2006-04-19, 02:24:00,VALID,918.182,VALID,0,VALID,99.4725,VALID,-0.186789,VALID,20.8027,VALID,345,VALID,1.05532,
2006-04-19, 02:25:00,VALID,918.19,VALID,0,VALID,99.587,VALID,-0.254712,VALID,20.7973,VALID,351,VALID,0.967416,
2006-04-19, 02:26:00,VALID,918.219,VALID,0,VALID,99.765,VALID,-0.237732,VALID,20.6367,VALID,7,VALID,0.896151,
2006-04-19, 02:27:00,VALID,918.249,VALID,0,VALID,99.8286,VALID,-0.0849042,VALID,20.7932,VALID,357,VALID,0.938033,
2006-04-19, 02:28:00,VALID,918.277,VALID,0,VALID,99.9766,VALID,0.0849042,VALID,20.5513,VALID,340,VALID,0.973028,
2006-04-19, 02:29:00,VALID,918.302,VALID,0,VALID,100,VALID,-0.135847,VALID,20.5694,VALID,2,VALID,0.800071,
2006-04-19, 02:30:00,VALID,918.326,VALID,0,VALID,100,VALID,-0.0679233,VALID,20.1033,VALID,1,VALID,0.803943,
2006-04-19, 02:31:00,VALID,918.357,VALID,0,VALID,100,VALID,0.169808,VALID,20.1155,VALID,350,VALID,0.731051,
2006-04-19, 02:32:00,VALID,918.367,VALID,0,VALID,100,VALID,0.0849042,VALID,20.8866,VALID,355,VALID,1.21187,
2006-04-19, 02:33:00,VALID,918.373,VALID,0,VALID,100,VALID,-0.254712,VALID,20.2987,VALID,351,VALID,1.31793,
2006-04-19, 02:34:00,VALID,918.377,VALID,0,VALID,100,VALID,-0.254712,VALID,21.0632,VALID,6,VALID,0.837028,
2006-04-19, 02:35:00,VALID,918.394,VALID,0,VALID,100,VALID,-0.0339617,VALID,20.9562,VALID,350,VALID,0.723474,
2006-04-19, 02:36:00,VALID,918.412,VALID,0,VALID,100,VALID,0.0169808,VALID,20.8184,VALID,314,VALID,0.782617,
2006-04-19, 02:37:00,VALID,918.425,VALID,0,VALID,100,VALID,-0.0169808,VALID,20.3206,VALID,345,VALID,0.61814,
2006-04-19, 02:38:00,VALID,918.434,VALID,0,VALID,100,VALID,-0.101885,VALID,21.5037,VALID,329,VALID,1.15272,
2006-04-19, 02:39:00,VALID,918.451,VALID,0,VALID,100,VALID,-0.135847,VALID,20.7471,VALID,338,VALID,0.573583,
2006-04-19, 02:40:00,VALID,918.456,VALID,0,VALID,100,VALID,-0.20377,VALID,21.0455,VALID,356,VALID,0.34304,
2006-04-19, 02:41:00,VALID,918.474,VALID,0,VALID,100,VALID,-0.186789,VALID,21.0971,VALID,11,VALID,0.379836,
2006-04-19, 02:42:00,VALID,918.498,VALID,0,VALID,100,VALID,-0.20377,VALID,20.0909,VALID,6,VALID,0.724964,
2006-04-19, 02:43:00,VALID,918.519,VALID,0,VALID,100,VALID,-0.20377,VALID,20.4338,VALID,3,VALID,0.69707,
2006-04-19, 02:44:00,VALID,918.552,VALID,0,VALID,100,VALID,-0.20377,VALID,21.135,VALID,10,VALID,0.498884,
2006-04-19, 02:45:00,VALID,918.575,VALID,0,VALID,100,VALID,-0.20377,VALID,20.4419,VALID,10,VALID,0.616461,
2006-04-19, 02:46:00,VALID,918.602,VALID,0,VALID,100,VALID,-0.20377,VALID,20.9753,VALID,11,VALID,0.598772,
2006-04-19, 02:47:00,VALID,918.619,VALID,0,VALID,100,VALID,-0.20377,VALID,21.0209,VALID,10,VALID,0.586301,
2006-04-19, 02:48:00,VALID,918.635,VALID,0,VALID,100,VALID,-0.118866,VALID,20.9964,VALID,10,VALID,0.525436,
2006-04-19, 02:49:00,VALID,918.646,VALID,0,VALID,100,VALID,-0.20377,VALID,20.7994,VALID,10,VALID,0.590774,
2006-04-19, 02:50:00,VALID,918.656,VALID,0,VALID,100,VALID,-0.20377,VALID,21.0804,VALID,17,VALID,0.675327,
2006-04-19, 02:51:00,VALID,918.674,VALID,0,VALID,100,VALID,-0.20377,VALID,20.6136,VALID,18,VALID,0.816964,
2006-04-19, 02:52:00,VALID,918.692,VALID,0,VALID,100,VALID,-0.20377,VALID,20.9529,VALID,26,VALID,1.0747,
2006-04-19, 02:53:00,VALID,918.713,VALID,0,VALID,100,VALID,-0.237732,VALID,20.7883,VALID,21,VALID,0.940505,
2006-04-19, 02:54:00,VALID,918.736,VALID,0,VALID,100,VALID,-0.20377,VALID,21.0712,VALID,26,VALID,0.751272,
2006-04-19, 02:55:00,VALID,918.76,VALID,0,VALID,100,VALID,-0.20377,VALID,20.1633,VALID,30,VALID,0.603601,
2006-04-19, 02:56:00,VALID,918.774,VALID,0,VALID,100,VALID,-0.20377,VALID,20.4759,VALID,30,VALID,0.355378,
2006-04-19, 02:57:00,VALID,918.792,VALID,0,VALID,100,VALID,-0.220751,VALID,20.4358,VALID,30,VALID,0.221726,
2006-04-19, 02:58:00,VALID,918.8,VALID,0,VALID,100,VALID,-0.220751,VALID,20.5668,VALID,27,VALID,0.678199,
2006-04-19, 02:59:00,VALID,918.793,VALID,0,VALID,100,VALID,-0.220751,VALID,20.8446,VALID,22,VALID,0.813388,
2006-04-19, 03:00:00,VALID,918.799,VALID,0,VALID,100,VALID,-0.220751,VALID,20.8288,VALID,16,VALID,0.867898,
2006-04-19, 03:01:00,VALID,918.792,VALID,0,VALID,100,VALID,-0.20377,VALID,20.2115,VALID,19,VALID,0.607067,
2006-04-19, 03:02:00,VALID,918.796,VALID,0,VALID,100,VALID,-0.135847,VALID,21.1061,VALID,20,VALID,0.519626,
2006-04-19, 03:03:00,VALID,918.794,VALID,0,VALID,100,VALID,-0.118866,VALID,20.7079,VALID,20,VALID,0.373535,
2006-04-19, 03:04:00,VALID,918.81,VALID,0,VALID,100,VALID,-0.152827,VALID,20.9866,VALID,20,VALID,0.0139509,
2006-04-19, 03:05:00,VALID,918.82,VALID,0,VALID,100,VALID,-0.884276,VALID,20.4956,VALID,20,VALID,0.255903,
2006-04-19, 03:06:00,VALID,918.823,VALID,0,VALID,100,VALID,-0.20377,VALID,21.0224,VALID,20,VALID,0.264915,
2006-04-19, 03:07:00,VALID,918.817,VALID,0,VALID,100,VALID,-0.220751,VALID,20.7272,VALID,22,VALID,0.324929,
2006-04-19, 03:08:00,VALID,918.829,VALID,0,VALID,100,VALID,-0.220751,VALID,20.6193,VALID,22,VALID,0.049782,
2006-04-19, 03:09:00,VALID,918.813,VALID,0,VALID,100,VALID,-0.220751,VALID,20.6013,VALID,22,VALID,0.0575457,
2006-04-19, 03:10:00,VALID,918.818,VALID,0,VALID,100,VALID,-0.271693,VALID,21.3437,VALID,22,VALID,0.000363372,
2006-04-19, 03:11:00,VALID,918.818,VALID,0,VALID,100,VALID,-0.254712,VALID,21.3868,VALID,20,VALID,0.278582,
2006-04-19, 03:12:00,VALID,918.822,VALID,0,VALID,100,VALID,-0.237732,VALID,20.5371,VALID,19,VALID,0,
2006-04-19, 03:13:00,VALID,918.83,VALID,0,VALID,100,VALID,-0.20377,VALID,21.0757,VALID,19,VALID,0,
2006-04-19, 03:14:00,VALID,918.823,VALID,0,VALID,100,VALID,-0.152827,VALID,20.9606,VALID,16,VALID,0.233333,
2006-04-19, 03:15:00,VALID,918.835,VALID,0,VALID,100,VALID,-0.288674,VALID,20.2093,VALID,9,VALID,0.196429,
2006-04-19, 03:16:00,VALID,918.835,VALID,0,VALID,100,VALID,-0.271693,VALID,21.8854,VALID,7,VALID,0.00145349,
2006-04-19, 03:17:00,VALID,918.836,VALID,0,VALID,100,VALID,-0.20377,VALID,20.4691,VALID,7,VALID,0.0890625,
2006-04-19, 03:18:00,VALID,918.838,VALID,0,VALID,100,VALID,-0.186789,VALID,19.9377,VALID,4,VALID,0.133721,
2006-04-19, 03:19:00,VALID,918.843,VALID,0,VALID,100,VALID,-0.135847,VALID,20.9883,VALID,3,VALID,0.0329649,
2006-04-19, 03:20:00,VALID,918.842,VALID,0,VALID,99.9718,VALID,-0.135847,VALID,20.6734,VALID,294,VALID,0.360137,
2006-04-19, 03:21:00,VALID,918.843,VALID,0,VALID,99.8388,VALID,-0.118866,VALID,21.3431,VALID,277,VALID,0.636533,
2006-04-19, 03:22:00,VALID,918.837,VALID,0,VALID,99.988,VALID,-0.135847,VALID,21.6246,VALID,235,VALID,0.118118,
2006-04-19, 03:23:00,VALID,918.849,VALID,0,VALID,100,VALID,-0.135847,VALID,20.5077,VALID,236,VALID,0.078125,
2006-04-19, 03:24:00,VALID,918.833,VALID,0,VALID,99.9209,VALID,-0.237732,VALID,20.3174,VALID,230,VALID,0.677507,
2006-04-19, 03:25:00,VALID,918.816,VALID,0,VALID,99.8922,VALID,-0.254712,VALID,20.4996,VALID,239,VALID,0.457919,
2006-04-19, 03:26:00,VALID,918.821,VALID,0,VALID,99.9891,VALID,-0.254712,VALID,20.4363,VALID,242,VALID,0.125762,
2006-04-19, 03:27:00,VALID,918.812,VALID,0,VALID,100,VALID,-0.288674,VALID,20.2549,VALID,242,VALID,0.0133929,
2006-04-19, 03:28:00,VALID,918.827,VALID,0,VALID,100,VALID,-0.169808,VALID,20.7018,VALID,242,VALID,0.00545058,
2006-04-19, 03:29:00,VALID,918.833,VALID,0,VALID,100,VALID,-0.152827,VALID,20.5752,VALID,242,VALID,0.112827,
2006-04-19, 03:30:00,VALID,918.837,VALID,0,VALID,100,VALID,-0.271693,VALID,21.2371,VALID,242,VALID,0.108259,
2006-04-19, 03:31:00,VALID,918.855,VALID,0,VALID,100,VALID,-0.271693,VALID,20.374,VALID,242,VALID,0.0328852,
2006-04-19, 03:32:00,VALID,918.849,VALID,0,VALID,100,VALID,-0.20377,VALID,20.9435,VALID,242,VALID,0.00374349,
2006-04-19, 03:33:00,VALID,918.844,VALID,0,VALID,100,VALID,-0.220751,VALID,20.385,VALID,238,VALID,0.226926,
2006-04-19, 03:34:00,VALID,918.835,VALID,0,VALID,99.9486,VALID,-0.135847,VALID,20.7513,VALID,180,VALID,0.315589,
2006-04-19, 03:35:00,VALID,918.806,VALID,0,VALID,99.8884,VALID,-0.135847,VALID,20.2075,VALID,180,VALID,0.386161,
2006-04-19, 03:36:00,VALID,918.795,VALID,0,VALID,99.7383,VALID,-0.135847,VALID,21.0035,VALID,179,VALID,0.294271,